Lapse_Rate
7.3 7.2 7.4 7.4 7.4 7.4 7.3 7.2 7.0 7.0 7.0 6.9 6.8 6.8 6.7 6.5 6.3 6.2 6.2 6.4 6.5 6.4 6.6 6.4 6.3 6.0 5.8 5.3 5.2 5.2 5.3 5.3 5.4 5.4 5.3 5.1 5.3 5.6 6.1 6.4 6.8 6.9 6.8 6.9 7.0
7.5 7.3 7.3 7.3 7.2 7.3 7.1 7.0 7.0 6.9 6.7 6.7 6.6 6.6 6.6 6.4 6.2 6.2 6.2 6.3 6.4 6.5 6.4 6.1 5.8 5.5 5.3 5.2 5.1 5.1 5.1 5.1 5.1 5.3 5.4 5.3 5.3 5.5 6.2 6.6 6.9 7.2 7.2 7.1 7.0
7.2 7.4 7.2 7.1 7.0 7.1 7.0 6.8 6.7 6.8 6.5 6.5 6.5 6.6 6.6 6.4 6.3 6.1 6.1 6.2 6.4 6.3 6.1 5.8 5.5 5.2 4.8 4.8 5.0 4.9 5.0 5.0 5.1 5.2 5.4 5.3 5.3 5.7 6.4 6.7 6.8 7.0 7.1 7.0 7.1
7.0 7.2 7.3 7.2 7.0 6.9 6.9 6.9 6.7 6.6 6.4 6.2 6.4 6.6 6.6 6.5 6.2 6.0 6.2 6.3 6.2 6.1 5.7 5.6 5.4 5.2 4.9 5.1 5.1 5.1 4.9 4.9 4.9 5.1 5.3 5.2 5.3 5.7 6.3 6.5 6.7 6.9 7.0 6.9 6.9
6.8 7.0 7.0 7.1 7.1 6.9 6.7 6.8 6.9 6.6 6.3 6.2 6.3 6.6 6.5 6.5 6.1 6.0 6.1 6.1 6.1 5.8 5.5 5.6 5.4 5.2 5.1 5.2 5.1 5.1 5.0 5.0 5.1 5.1 5.3 5.3 5.4 5.9 6.5 6.7 6.5 6.7 6.8 6.7 6.7
6.5 6.6 6.8 7.0 7.1 7.0 6.9 6.8 6.7 6.7 6.3 6.2 6.3 6.5 6.5 6.4 6.1 5.9 5.9 6.0 5.9 5.5 5.4 5.4 5.3 5.3 5.2 5.1 5.2 5.2 5.2 5.2 5.2 5.3 5.5 5.4 5.5 5.8 6.4 6.8 6.7 6.7 6.6 6.6 6.5
6.2 6.3 6.5 6.7 6.8 6.9 6.8 6.8 6.6 6.4 6.2 6.2 6.3 6.3 6.5 6.2 6.1 5.9 5.8 5.7 5.6 5.6 5.5 5.4 5.3 5.2 5.2 5.2 5.3 5.3 5.4 5.3 5.2 5.4 5.5 5.4 5.6 6.0 6.4 6.7 6.9 6.7 6.5 6.4 6.5
6.0 6.2 6.2 6.5 6.5 6.7 6.9 6.8 6.9 6.6 6.3 6.4 6.3 6.2 6.3 6.1 6.1 5.9 5.6 5.5 5.4 5.5 5.5 5.3 5.3 5.3 5.1 5.3 5.4 5.4 5.4 5.3 5.2 5.3 5.4 5.3 6.1 6.2 6.5 6.7 6.7 6.6 6.5 6.3 6.2
5.7 5.9 6.2 6.2 6.4 6.4 6.8 6.9 6.7 6.7 6.4 6.3 6.4 6.4 6.2 6.2 5.9 5.7 5.5 5.4 5.4 5.4 5.3 5.3 5.4 5.3 5.2 5.3 5.3 5.3 5.1 5.2 5.5 5.3 5.2 5.4 6.1 6.2 6.4 6.5 6.4 6.5 6.5 6.4 6.4
5.8 5.8 6.0 6.1 6.4 6.3 6.4 6.8 6.9 6.6 6.5 6.4 6.4 6.2 6.4 6.2 5.9 5.6 5.5 5.5 5.4 5.3 5.2 5.4 5.4 5.4 5.2 5.2 5.3 5.3 5.1 5.2 5.3 5.1 5.2 5.5 6.1 6.0 6.4 6.6 6.7 6.6 6.4 6.5 6.7
5.9 5.9 5.8 5.9 6.1 6.3 6.2 6.3 6.8 6.8 6.6 6.2 6.4 6.3 6.5 6.3 6.0 5.6 5.6 5.5 5.4 5.2 5.2 5.3 5.4 5.6 5.5 5.3 5.3 5.2 5.1 5.1 5.4 5.1 5.1 5.5 5.9 6.2 6.5 6.5 6.5 6.2 6.3 6.4 6.6
6.0 5.9 5.9 5.9 6.0 6.2 6.1 6.1 6.3 6.6 6.9 6.6 6.5 6.4 6.5 6.3 6.1 5.8 5.6 5.6 5.5 5.4 5.3 5.4 5.6 5.6 5.3 5.3 5.2 5.3 5.3 5.3 5.4 5.1 5.1 5.5 5.8 6.2 6.7 6.4 6.0 5.5 5.7 5.9 6.7
6.0 5.9 5.9 5.9 6.0 6.0 6.1 6.0 6.0 6.3 6.4 7.4 6.8 6.8 6.5 6.4 6.3 6.1 5.8 5.6 5.5 5.5 5.5 5.3 5.7 5.5 5.4 5.3 5.2 5.3 5.4 5.4 5.1 4.9 5.2 5.2 5.8 6.4 6.7 6.0 5.5 5.4 5.7 6.3 6.6
5.6 5.8 6.0 5.8 5.8 6.0 5.8 6.0 6.0 5.9 5.8 6.9 7.2 7.3 6.7 6.3 6.3 6.0 5.9 5.7 5.5 5.6 5.3 5.4 5.7 5.5 5.4 5.3 5.2 5.4 5.4 5.2 5.1 4.9 5.0 5.0 5.0 6.2 6.5 6.2 5.7 5.9 6.2 6.5 6.7
5.6 5.3 5.5 5.8 5.6 5.9 5.9 5.6 5.7 5.9 4.8 6.7 7.0 6.6 6.7 6.5 6.7 6.6 6.2 5.9 5.8 5.7 5.4 5.5 5.6 5.6 5.5 5.5 5.3 5.4 5.4 5.3 5.3 5.1 5.0 4.9 4.8 6.0 6.3 6.4 5.8 5.9 5.8 6.0 6.4
5.0 5.0 5.1 5.2 5.6 5.6 5.9 5.8 5.4 5.8 4.3 6.4 6.8 6.6 6.5 6.2 6.3 6.5 6.2 6.0 5.7 5.5 5.5 5.4 5.5 5.5 5.4 5.5 5.5 5.4 5.4 5.2 5.1 5.1 4.4 4.8 5.1 5.9 6.1 6.0 5.6 5.7 5.7 5.7 5.7
4.6 5.0 4.7 5.1 5.7 5.7 5.8 6.0 5.4 5.1 5.9 6.4 6.8 6.8 6.4 6.4 6.0 6.3 6.3 6.2 6.1 5.6 5.6 5.6 5.5 5.5 5.6 5.5 5.5 5.3 5.3 5.0 4.2 3.8 3.7 4.9 5.0 6.0 6.0 5.8 5.5 5.6 5.3 5.5 5.7
4.8 5.0 4.8 5.0 5.7 5.8 5.8 6.0 5.5 5.4 5.9 6.8 6.8 6.7 6.6 6.3 6.1 6.1 6.2 6.0 5.9 6.0 6.0 5.7 5.4 5.7 5.8 5.6 5.6 5.5 5.5 5.4 3.1 2.7 2.9 5.0 5.2 6.1 5.9 5.8 5.5 5.4 5.4 5.4 5.6
5.4 5.1 5.5 5.6 5.9 6.0 5.9 5.2 4.8 5.1 6.2 6.7 7.1 6.5 6.3 6.2 6.1 6.1 6.2 6.5 6.5 6.3 6.2 6.0 5.7 5.7 5.7 5.6 5.7 5.5 5.3 5.4 5.2 4.1 3.6 5.1 5.6 6.1 5.9 5.8 5.4 5.3 5.3 5.7 6.0
5.3 5.5 5.5 6.4 6.2 6.0 5.7 5.1 5.6 5.6 6.2 6.8 6.8 7.1 6.9 6.8 6.1 6.1 6.2 6.7 6.8 6.7 6.3 6.2 5.9 5.7 5.6 5.5 5.6 5.5 5.5 5.2 5.2 3.4 4.2 4.5 5.3 6.1 6.0 6.0 5.4 5.3 5.4 5.6 6.2
4.8 5.0 5.5 6.2 6.5 6.1 5.4 5.2 5.4 5.4 6.6 7.0 6.8 7.1 7.2 7.0 7.0 6.6 6.8 7.1 7.1 6.9 6.4 6.3 6.2 5.5 5.4 5.5 5.8 5.5 5.3 5.4 5.4 5.0 3.9 3.8 5.6 6.2 6.0 6.0 5.8 5.4 5.1 5.4 5.7
4.2 4.2 4.5 5.1 5.9 5.6 5.0 5.4 5.1 6.2 6.4 7.0 7.2 7.1 7.1 7.3 7.6 7.2 6.7 7.3 7.1 7.1 6.8 6.4 6.0 5.9 5.7 5.8 5.7 5.6 5.6 5.6 5.6 4.9 4.6 4.5 5.6 6.2 6.2 6.0 6.1 5.8 5.3 5.2 5.2
4.6 4.3 4.4 4.8 5.4 5.6 5.3 5.3 5.2 5.1 6.5 6.3 6.9 7.2 7.2 7.4 7.1 7.5 7.5 7.2 7.2 7.2 7.1 6.6 5.9 5.7 5.3 5.4 5.5 5.5 5.6 5.6 5.5 5.4 5.2 4.3 5.8 6.2 6.1 6.2 6.2 6.1 5.7 5.3 5.2
5.3 4.5 4.7 4.7 5.2 5.5 5.3 5.1 5.3 5.3 5.3 6.3 5.9 6.7 7.2 7.3 7.4 7.5 7.7 7.3 7.0 7.0 6.5 6.7 6.5 6.8 6.3 6.6 6.7 6.0 6.1 5.6 5.4 5.4 5.5 5.6 6.1 6.3 6.2 6.2 6.3 6.3 6.1 5.7 5.4
6.3 5.0 5.1 5.4 5.8 5.8 5.7 5.3 5.1 5.0 5.2 5.2 6.0 6.4 6.7 7.1 7.3 7.6 7.5 7.5 7.4 7.1 6.6 6.3 6.5 6.6 6.6 6.4 6.4 6.3 6.3 6.0 5.6 5.8 5.7 6.2 5.9 5.9 6.0 6.1 6.3 6.4 6.3 6.2 5.9
7.0 6.2 6.3 5.8 6.5 6.6 6.2 5.8 5.3 5.3 5.4 5.4 5.4 6.5 6.5 6.9 7.0 7.6 7.9 7.7 7.9 7.5 7.1 6.5 6.4 6.5 6.5 6.3 6.3 6.2 6.1 5.9 5.6 5.6 5.6 5.6 6.1 5.9 5.9 6.1 6.4 6.4 6.4 6.3 6.3
7.2 7.0 7.2 6.7 6.6 6.4 6.1 6.3 5.9 5.4 5.3 5.2 5.4 5.7 6.1 6.9 7.1 6.9 7.8 8.3 8.4 8.3 8.1 7.1 6.5 6.5 6.3 6.4 5.9 5.6 7.2 7.0 6.8 6.5 6.4 5.9 7.0 6.1 6.2 6.1 6.3 6.4 6.5 6.4 6.5
Wind_Speed
12 13 15 16 16 16 18 20 17 13 11 10 10 9 11 13 13 3 4 5 5 2 3 1 4 4 4 3 3 3 4 2 3 4 4 3 2 2 1 2 4 3 2 3 2
13 13 13 15 17 17 18 19 20 16 12 10 9 10 10 11 2 2 4 8 6 5 5 6 3 3 3 1 2 4 3 7 5 3 4 3 1 2 2 5 3 4 4 2 2
15 15 16 15 17 18 19 20 19 18 15 10 8 9 9 6 1 4 8 9 8 7 5 2 3 3 1 1 2 3 4 4 4 7 4 2 2 1 2 4 2 7 7 7 5
14 15 15 15 15 19 21 20 18 17 17 13 9 8 8 0 3 2 10 9 8 7 3 4 3 4 2 2 2 1 5 4 4 4 3 3 1 2 4 2 5 6 4 4 9
14 15 16 17 17 18 20 22 20 18 16 14 10 6 2 2 6 3 10 9 5 4 3 3 2 3 3 3 1 3 3 4 7 6 6 3 3 3 4 2 5 6 8 8 7
16 16 17 17 18 18 18 21 24 20 16 15 9 5 1 2 2 8 11 6 3 3 2 3 4 5 3 2 2 3 4 6 5 4 3 5 2 6 3 3 5 5 7 5 5
18 18 18 20 20 21 21 18 22 22 15 11 8 3 2 7 2 9 7 4 4 4 3 2 3 3 3 1 2 2 4 7 2 3 1 5 1 4 1 1 5 7 6 5 5
18 19 21 20 23 23 23 23 16 15 11 6 6 3 5 2 3 6 3 3 3 3 3 4 3 3 1 1 5 3 4 4 4 4 2 3 7 4 2 2 4 7 7 6 5
17 19 19 21 20 25 26 26 13 2 5 5 4 2 6 2 3 5 5 4 5 3 2 3 3 3 3 3 4 5 2 3 7 2 3 4 5 4 3 1 4 6 7 9 11
16 17 18 20 21 22 29 20 3 5 2 5 4 3 2 5 3 5 3 5 3 4 3 4 4 2 3 4 3 4 2 4 5 4 1 4 9 5 3 1 3 6 7 7 8
16 16 18 20 23 23 13 3 4 2 2 8 5 4 1 2 3 2 5 6 4 4 3 2 3 6 8 7 3 2 3 5 5 5 3 3 6 6 4 2 4 6 7 9 11
16 15 18 19 21 24 3 2 2 3 6 9 10 8 4 2 2 3 6 6 5 5 4 4 6 10 4 4 4 3 3 5 5 3 1 5 8 5 3 1 4 7 10 11 9
20 17 16 19 24 4 3 4 7 3 2 7 6 7 6 7 6 7 10 6 4 6 6 7 5 3 6 3 3 3 4 4 5 5 0 5 6 3 2 2 4 7 8 7 11
18 20 16 19 3 4 5 9 10 2 4 7 4 7 7 6 4 5 7 7 2 8 6 6 5 6 4 4 6 3 3 3 2 4 2 3 4 4 2 6 4 8 11 10 14
20 19 23 3 4 2 4 15 8 3 4 4 4 1 3 11 7 2 2 4 8 6 6 6 5 5 4 6 7 6 1 1 1 2 3 2 2 6 3 4 6 9 10 13 13
18 18 17 1 1 4 12 5 3 4 9 3 6 6 5 1 2 4 3 5 3 5 1 5 2 5 7 2 3 3 2 5 4 2 2 2 3 5 3 3 4 7 10 13 13
21 17 12 4 3 5 7 3 0 6 2 6 5 7 4 5 4 6 6 5 6 5 5 1 3 2 3 3 1 3 5 3 4 3 5 1 2 8 3 2 3 5 9 9 10
20 25 8 9 6 1 1 3 7 6 9 3 2 5 7 5 5 5 7 6 4 4 3 6 3 7 5 5 7 2 5 5 5 2 5 3 4 4 1 4 1 3 5 6 7
20 3 4 3 14 2 3 7 9 7 5 8 3 3 5 4 5 4 8 7 9 10 8 5 4 1 2 3 5 3 2 4 6 2 3 3 6 5 1 3 2 5 5 4 5
3 4 6 14 13 1 3 13 10 7 2 4 13 7 10 8 7 6 9 6 7 10 4 7 3 1 3 4 5 3 7 3 3 1 3 4 4 5 4 4 3 2 2 3 3
2 4 3 17 3 2 6 11 7 11 3 7 9 7 7 9 10 6 5 3 5 7 5 5 4 2 3 6 8 3 2 4 4 4 4 2 5 6 5 4 4 5 3 2 3
2 3 2 3 5 2 7 7 4 4 16 8 2 6 9 10 8 9 10 5 8 10 10 6 5 4 6 1 4 4 6 6 4 4 2 3 6 1 5 5 5 5 5 3 3
3 3 4 1 9 8 4 13 15 10 14 4 6 7 4 9 4 7 7 1 8 8 11 9 2 3 5 4 1 4 5 4 5 3 6 5 5 1 2 4 6 5 5 4 5
3 3 3 5 10 10 12 14 8 12 19 6 5 2 3 4 1 7 4 2 5 5 5 7 4 6 7 5 5 5 6 6 6 4 5 6 3 6 7 8 7 6 6 6 5
4 6 5 5 13 19 17 6 20 15 16 8 6 16 7 5 3 5 3 3 3 10 3 5 6 5 5 2 4 5 6 9 9 5 7 6 9 8 12 13 12 8 7 7 8
5 3 3 11 16 15 22 23 16 15 16 23 13 17 8 7 7 8 8 5 7 5 7 1 3 4 2 5 7 5 7 10 10 4 8 4 8 8 1 7 7 9 9 8 8
5 6 5 10 12 14 6 18 21 18 13 21 26 17 17 20 6 7 5 7 8 12 8 8 6 4 4 3 5 5 12 15 6 6 10 9 10 6 4 9 12 12 12 13 10
Wind_Direction
353 352 347 345 343 340 337 329 324 323 328 331 320 324 325 327 317 162 233 185 141 96 68 13 66 56 51 77 79 112 67 204 238 181 255 256 2 278 6 314 325 345 254 268 305
347 349 350 346 341 342 337 332 326 321 320 319 319 313 316 333 268 222 222 153 113 57 62 55 59 54 27 86 44 89 124 218 216 205 219 271 262 301 18 338 295 317 325 356 12
348 348 346 348 343 339 338 337 332 321 314 311 307 301 313 340 342 234 187 138 103 76 74 80 95 108 77 103 176 161 189 208 251 234 223 227 274 112 13 328 300 285 310 351 27
343 342 341 343 346 341 340 336 334 322 314 308 296 298 314 51 200 226 164 129 105 91 78 103 80 110 146 208 165 236 238 203 262 240 164 225 297 32 87 3 330 18 0 44 35
337 340 339 341 343 343 340 335 331 326 317 302 292 290 251 64 251 216 142 120 90 104 96 114 104 131 189 204 225 188 258 213 253 272 239 181 236 209 109 34 18 18 41 29 19
331 336 336 338 337 336 339 337 333 325 317 303 278 247 158 192 235 154 130 101 106 130 120 121 169 186 182 224 170 229 272 279 272 294 267 160 163 137 146 28 48 41 34 12 0
330 331 335 333 335 333 333 334 328 322 308 297 248 258 99 230 71 143 132 142 158 157 136 168 141 134 142 228 306 283 326 331 278 312 356 143 204 171 26 33 21 15 9 345 314
328 330 330 333 332 330 327 324 324 321 301 283 231 291 237 284 149 133 141 96 124 137 115 136 133 109 168 330 16 43 55 4 279 352 328 125 254 150 65 101 360 8 350 338 318
325 327 328 327 332 328 322 320 311 91 273 282 288 188 261 124 150 183 144 138 127 92 71 105 72 92 36 73 12 10 254 267 315 333 223 196 260 152 165 102 23 2 348 338 325
318 318 321 323 326 329 325 312 105 94 137 254 265 333 269 226 181 156 153 129 121 102 51 58 50 64 45 81 235 246 293 268 249 283 255 252 262 217 204 212 23 358 324 301 303
314 316 320 324 325 327 341 348 22 39 141 206 239 226 266 242 127 130 143 108 103 80 162 19 77 220 223 198 175 178 208 249 253 258 293 253 280 245 215 284 4 312 313 321 301
331 312 320 321 320 324 328 332 206 191 298 229 234 281 263 187 136 154 129 137 136 193 122 30 238 234 210 174 192 207 243 263 284 256 236 319 282 257 220 241 85 359 325 308 317
341 335 318 322 319 353 305 307 326 183 226 285 186 207 218 149 212 211 146 139 159 158 180 173 229 98 159 183 189 235 207 233 230 327 276 339 300 346 322 85 52 342 280 328 326
337 348 328 328 52 338 308 327 319 328 16 267 214 255 165 146 231 196 174 142 152 200 170 229 253 173 175 207 153 276 223 242 276 35 258 40 286 303 294 316 50 311 355 349 343
352 352 350 352 293 321 294 320 303 53 280 211 170 112 235 160 144 187 173 71 162 175 120 247 181 165 178 217 167 220 29 310 282 180 38 339 67 268 358 326 14 329 342 355 347
339 339 354 205 181 264 318 325 8 59 235 217 145 153 141 170 145 118 117 64 127 136 141 230 253 169 200 142 174 122 115 47 54 80 8 277 125 282 291 290 346 305 345 359 355
331 324 322 294 278 327 308 65 94 206 278 205 196 146 167 188 168 144 156 158 155 134 219 232 219 193 139 109 69 87 63 339 3 10 223 226 69 246 261 155 197 328 345 355 350
325 317 271 233 215 342 68 81 211 207 215 76 104 105 168 158 215 173 134 189 224 110 120 171 262 174 186 183 179 167 154 153 211 213 266 302 241 258 176 144 285 19 8 10 5
324 295 272 226 218 188 216 202 215 180 214 152 72 124 192 213 176 148 186 192 194 172 175 146 268 118 127 134 129 170 181 157 106 22 32 254 290 301 306 266 81 38 37 26 8
330 292 256 233 158 166 152 236 220 192 225 171 202 178 184 186 170 186 181 203 192 183 154 198 109 210 149 106 43 160 155 85 12 128 275 285 275 241 280 279 128 125 48 55 33
4 295 285 131 97 127 205 223 232 261 158 188 216 188 202 170 176 194 210 265 179 157 125 136 105 241 131 206 172 141 174 63 116 138 183 287 264 210 215 217 197 166 133 6 45
217 253 208 155 201 195 199 218 281 259 257 259 219 210 180 175 175 195 203 240 163 144 157 191 132 167 198 234 176 171 171 152 129 212 170 153 273 321 205 214 189 161 149 134 92
247 241 223 124 236 235 259 235 237 250 252 234 242 202 196 174 184 195 187 352 165 158 160 179 181 96 7 356 307 207 190 135 111 96 193 146 258 156 192 219 230 180 164 144 135
263 264 247 199 245 267 235 229 220 224 256 255 319 233 168 188 248 173 155 112 173 168 143 116 142 165 186 187 141 192 178 170 139 146 177 221 243 236 225 218 221 206 184 163 169
211 233 213 253 226 229 235 235 223 208 241 266 207 247 244 178 123 145 129 121 54 148 103 139 192 169 225 167 151 184 173 176 196 182 184 223 203 225 214 209 207 197 175 178 179
249 199 248 253 264 267 232 250 238 226 235 216 236 225 248 227 194 188 150 194 182 193 155 156 181 150 229 205 204 228 218 194 213 207 265 257 258 219 229 124 165 190 179 193 181
224 243 248 246 256 254 256 230 232 228 222 239 223 234 247 258 298 285 201 164 176 159 162 148 136 131 236 146 131 282 221 202 184 193 190 213 226 163 174 196 197 194 192 196 193